GFSMW_850_thetae_000.txt.gz
Theta_e
323 324 324 325 325 330 329 328 326 324 324 323 322 322 320 316 313 312 311 312 312 312 312 311 311 310 309 308 308 308 308 307 304 304 303 302 301 301 302 303 306 309 310
322 323 324 324 325 326 325 322 321 323 322 320 319 317 315 312 312 312 312 312 312 311 308 309 309 307 307 306 305 305 305 304 302 301 299 302 300 300 303 303 304 306 307
321 320 320 321 319 320 321 319 318 318 318 316 314 312 312 312 312 311 309 308 307 307 307 307 306 305 303 302 302 302 301 299 299 299 303 304 304 304 303 303 304 303 304
319 318 318 318 318 316 315 314 314 313 313 313 312 312 311 311 310 309 307 307 306 307 307 306 304 301 299 299 298 297 297 297 298 301 302 302 301 301 301 301 300 300 300
318 318 317 317 316 316 315 314 314 312 312 312 311 311 311 310 309 308 307 306 306 306 304 301 299 297 296 296 297 298 299 299 300 299 299 298 298 298 297 297 297 297 297
318 318 317 317 317 316 315 315 314 314 314 313 312 311 311 309 308 306 305 304 303 303 302 300 297 298 298 297 297 298 298 298 298 298 298 297 297 296 296 295 295 295 295
318 317 317 317 316 316 315 315 315 314 313 312 311 310 309 307 306 304 304 305 302 301 301 299 299 299 298 295 297 297 296 297 296 295 294 294 294 294 294 295 295 294 294
317 317 317 316 315 314 315 315 314 314 313 313 312 309 306 304 304 305 305 304 302 300 300 300 299 297 294 296 294 292 291 291 290 290 290 290 291 293 293 294 294 294 295
316 315 315 315 314 314 313 313 312 312 311 309 307 307 305 305 305 303 302 301 301 301 301 300 296 293 292 293 291 290 289 288 288 287 288 289 290 290 291 291 291 290 290
315 314 313 312 311 311 310 309 308 307 307 305 304 303 303 304 303 303 302 301 301 301 300 298 293 292 291 290 289 289 288 288 288 288 288 288 288 288 287 287 288 290 291
312 311 310 310 309 308 307 305 304 303 300 300 300 299 300 302 303 302 300 300 300 299 299 294 293 290 290 289 289 289 288 288 288 288 288 288 288 287 287 286 285 287 289
311 310 309 308 307 305 304 303 302 301 299 298 297 299 302 302 302 301 300 300 299 295 295 293 292 290 289 289 288 288 288 288 288 288 287 287 286 285 286 285 285 284 287
311 309 307 305 304 303 303 301 300 300 299 298 297 296 295 295 296 301 300 297 294 293 294 291 289 289 288 288 288 288 288 288 288 288 287 286 285 285 284 284 284 284 284
310 307 303 303 302 301 300 300 300 299 298 297 296 294 293 294 296 299 295 295 296 293 290 289 289 288 288 288 288 288 288 288 287 286 286 284 283 281 282 283 284 285 284
305 303 304 302 300 299 299 299 298 297 296 295 294 292 291 293 294 295 295 296 292 291 289 289 289 288 288 288 288 288 287 287 286 284 283 283 281 281 282 283 284 285 286
302 302 302 299 299 298 297 297 296 295 294 294 293 292 292 292 292 293 295 294 291 289 289 290 288 288 289 288 288 287 286 284 284 283 283 281 280 280 280 281 282 282 283
301 302 299 298 298 297 297 296 295 294 294 294 293 293 292 292 292 293 294 293 291 291 290 288 288 289 288 288 287 285 284 284 283 282 281 280 279 279 280 280 281 281 281
301 300 299 298 297 296 296 295 295 294 294 294 293 293 292 292 291 293 293 292 291 291 289 288 288 288 287 286 285 284 283 283 282 281 280 279 279 279 279 280 281 281 281
300 300 298 298 296 296 295 295 295 294 294 293 293 292 292 291 292 293 292 292 292 290 288 288 288 287 286 285 283 282 281 280 280 279 279 278 278 279 280 280 280 280 280
300 299 298 297 296 296 295 295 294 294 293 293 292 292 292 291 292 291 291 291 289 289 288 288 287 286 285 283 281 279 279 278 278 278 278 278 278 279 279 280 279 279 279
299 297 297 296 295 295 295 294 294 293 293 293 293 292 291 291 291 291 290 289 289 289 288 287 286 285 284 282 280 280 278 277 277 278 278 278 278 278 278 279 279 279 279
298 297 296 295 294 294 294 293 293 293 293 293 292 290 290 291 290 290 290 289 289 288 287 287 286 284 282 281 280 279 277 277 277 277 277 277 277 278 278 278 279 279 279
296 296 295 293 293 293 291 292 293 293 293 292 291 290 289 290 289 289 289 289 288 288 287 286 285 283 282 281 280 278 277 277 277 277 277 277 277 277 277 277 278 278 279
295 293 291 291 290 290 290 292 293 293 292 292 292 290 288 287 287 289 289 288 288 288 286 285 284 282 281 281 279 278 277 277 277 277 277 276 276 276 277 277 277 277 278
292 290 290 290 290 290 290 290 290 291 291 292 292 290 288 287 287 288 288 288 288 287 285 284 283 282 282 281 279 278 277 276 276 277 276 276 276 276 276 276 277 277 277
290 290 290 290 290 290 290 290 290 290 290 291 290 290 289 287 287 288 288 287 286 285 284 283 283 283 282 281 279 278 277 276 275 275 276 275 275 275 275 276 276 276 277

GFSMW_850_thetae_006.txt.gz
Theta_e
324 325 325 325 325 325 326 326 326 326 325 322 318 317 318 319 319 312 312 311 309 308 307 307 307 307 306 306 305 304 302 301 300 298 299 300 300 299 298 301 301 300 299
326 326 327 328 329 328 325 322 321 321 319 319 318 318 315 311 311 311 311 309 309 308 307 307 306 305 303 302 301 300 297 295 294 294 293 297 296 298 299 296 297 299 298
322 323 324 324 322 319 317 315 313 313 313 313 312 313 312 311 311 310 309 309 308 307 306 305 303 302 303 303 302 298 296 296 295 293 296 298 298 297 296 295 294 296 296
319 319 319 316 315 314 313 313 313 313 313 313 313 313 313 312 311 310 309 307 306 305 304 303 303 303 302 300 298 297 296 296 293 293 296 297 297 296 296 295 294 293 293
317 316 315 314 314 314 314 314 314 314 314 313 313 312 312 311 310 308 307 305 304 303 300 299 301 300 300 299 298 298 297 293 292 292 292 292 292 292 293 292 292 291 290
315 315 315 315 314 314 314 314 314 314 313 313 312 311 309 308 306 304 304 304 302 301 300 300 301 300 299 296 294 293 292 291 290 289 289 288 288 288 289 289 289 289 288
315 315 315 316 314 314 314 314 313 313 312 311 310 308 306 303 302 303 303 303 302 301 300 300 301 299 296 294 293 292 289 289 288 287 287 287 287 286 286 287 287 287 286
315 315 314 315 314 314 313 312 311 310 309 308 306 304 303 301 301 302 301 300 299 299 300 299 300 299 297 298 292 290 288 288 288 287 287 287 286 286 286 287 287 287 286
314 314 313 313 313 312 311 309 308 306 305 303 303 300 298 297 296 295 294 293 293 293 298 299 299 297 297 292 292 289 288 288 288 288 288 287 287 287 287 287 287 286 285
313 312 311 311 311 311 309 307 304 303 301 300 299 298 296 295 294 293 292 291 290 296 299 297 297 295 294 292 289 288 287 288 288 287 287 287 287 287 287 286 286 286 285
311 310 310 310 310 309 308 307 302 301 300 299 297 295 294 293 292 291 290 289 291 297 297 296 296 293 292 289 288 287 288 288 288 287 287 287 287 286 286 285 283 283 282
308 309 309 308 306 304 302 302 301 300 298 297 295 295 294 293 291 290 290 289 291 296 296 294 294 293 289 288 288 287 288 287 287 287 287 287 286 285 283 282 282 281 281
308 308 307 304 302 302 301 300 300 299 297 296 295 294 294 293 292 291 290 290 291 293 293 294 293 289 288 288 288 287 287 288 287 287 287 286 284 283 282 282 281 281 280
308 306 303 302 301 301 303 299 299 297 296 295 295 295 294 293 292 290 290 290 292 293 292 292 289 288 288 288 288 288 288 287 287 287 285 284 283 282 282 281 280 280 280
305 304 303 302 303 302 299 298 298 296 295 295 295 294 293 293 291 291 290 290 291 292 292 290 289 288 289 288 288 288 288 287 286 285 283 282 281 280 280 280 279 279 279
305 303 302 302 300 299 298 297 296 295 295 295 294 294 293 291 291 291 290 291 292 292 292 289 289 290 289 288 288 287 287 285 284 282 281 280 280 279 278 278 278 279 279
305 302 301 300 299 299 297 296 295 294 295 294 294 293 292 291 290 290 290 291 292 291 290 290 290 290 288 288 287 286 285 283 281 281 280 279 279 278 278 278 279 279 280
304 301 300 300 299 297 296 295 294 294 294 293 293 292 291 292 290 290 290 291 291 291 291 291 288 288 288 287 286 286 283 282 281 280 279 279 279 278 278 279 279 279 279
303 301 300 299 297 295 295 294 295 294 293 293 291 291 292 292 290 289 290 290 291 291 290 288 288 288 287 286 285 283 281 281 281 279 279 278 278 278 278 278 278 278 279
302 301 299 298 296 295 295 295 293 292 291 290 291 292 292 291 291 289 290 289 290 289 289 289 288 287 286 285 283 281 281 281 280 279 279 278 278 277 277 278 278 278 278
304 299 298 296 296 295 293 291 290 289 289 289 289 290 291 291 290 289 289 289 289 289 288 288 287 286 285 283 281 280 280 279 278 278 278 278 277 277 277 277 277 278 277
299 298 297 296 294 291 290 289 289 289 289 289 289 289 290 290 290 289 288 287 288 288 287 286 287 285 283 282 281 280 280 278 276 276 278 277 276 276 276 276 276 277 277
298 297 295 293 290 290 289 289 289 289 289 289 289 289 290 291 290 288 287 287 288 287 287 287 286 284 282 281 281 280 279 278 277 276 276 276 276 276 276 276 276 277 277
299 295 293 291 290 290 289 289 289 289 289 289 289 289 290 290 290 287 287 287 287 287 287 286 285 283 282 281 281 280 279 278 278 276 276 276 276 275 275 275 276 276 277
294 292 291 290 290 289 289 289 289 289 289 289 289 289 289 289 289 288 287 287 287 286 284 284 283 283 282 281 281 280 279 278 278 277 276 276 276 276 276 275 275 275 276
292 291 290 290 290 289 289 289 289 289 289 289 289 289 290 289 289 288 287 287 286 285 284 283 283 283 282 281 281 280 279 279 278 278 277 276 276 275 275 275 275 274 275

GFSMW_850_thetae_009.txt.gz
Theta_e
325 325 326 326 325 325 325 327 327 326 324 322 321 319 316 319 317 312 311 311 310 309 309 307 307 306 305 305 303 303 303 302 300 298 299 297 296 298 299 297 298 298 296
324 325 326 327 327 325 322 321 320 319 318 319 318 318 316 311 311 311 310 310 309 308 307 306 305 303 303 303 302 301 299 298 297 296 297 298 298 299 298 299 296 295 295
324 323 322 318 317 316 315 313 313 315 313 312 312 312 312 311 311 311 310 309 308 306 305 303 302 300 299 300 299 298 298 298 297 295 296 297 297 297 297 297 297 296 294
320 318 315 313 312 312 312 312 312 313 313 313 312 313 312 312 311 310 308 306 305 304 303 302 300 298 300 300 299 298 297 296 295 294 295 293 295 294 294 294 294 293 291
316 314 314 313 313 313 313 313 313 313 313 312 312 312 311 310 308 305 304 304 304 303 302 300 297 296 299 299 299 297 293 292 292 290 290 292 291 292 291 290 290 290 289
314 314 313 313 314 314 313 313 313 313 313 312 311 310 309 306 305 303 303 303 302 300 297 295 295 298 299 299 297 296 297 295 292 288 288 289 289 289 289 289 289 288 288
314 314 314 313 314 314 313 313 313 313 311 310 307 306 305 304 301 300 299 298 296 295 294 294 297 299 299 297 296 295 293 289 288 288 288 288 288 288 288 288 288 288 288
314 314 314 314 313 313 313 313 312 309 307 305 302 300 300 298 296 295 294 293 292 291 290 291 297 299 298 296 297 292 290 289 289 288 288 288 288 287 287 288 288 287 287
314 314 313 312 312 312 311 309 308 305 302 301 300 298 297 295 294 293 292 291 290 290 290 293 299 298 297 296 293 289 289 288 288 288 288 287 287 287 287 287 287 287 287
315 313 311 310 309 308 307 307 305 302 301 300 298 297 295 294 293 293 291 290 290 290 292 297 298 297 294 292 289 289 287 287 288 288 287 287 287 287 287 286 286 285 284
313 310 308 308 307 306 305 305 303 303 300 298 297 296 295 294 294 293 291 290 290 290 294 296 296 294 293 292 289 288 287 287 287 287 287 287 287 286 286 285 284 283 283
310 308 308 307 305 304 304 304 304 301 298 298 297 296 295 295 294 292 290 290 290 290 293 294 293 292 293 292 288 288 288 288 288 287 287 287 286 285 285 284 283 282 282
307 307 307 306 304 302 304 304 302 299 298 297 296 295 295 294 293 291 290 290 290 290 292 292 292 292 290 288 288 288 288 288 288 287 287 286 285 284 284 283 282 282 282
307 308 306 305 303 303 304 302 299 298 297 296 295 294 294 293 293 291 290 290 290 290 291 291 292 291 289 288 289 288 288 288 287 287 286 285 283 282 282 282 281 281 280
307 307 306 304 302 305 302 299 298 297 296 295 295 294 293 293 292 290 290 290 290 291 291 291 290 289 289 289 289 288 288 287 286 286 284 282 281 281 280 280 280 280 280
309 308 305 303 304 301 299 298 297 296 295 295 295 294 293 293 291 290 290 290 290 291 291 291 289 290 290 289 288 288 287 286 285 283 282 281 281 279 279 279 279 279 279
310 307 305 303 300 300 299 297 296 295 295 295 294 293 293 291 291 291 290 290 290 291 291 291 291 291 290 288 288 287 286 285 283 282 281 281 279 279 278 278 279 279 279
309 307 304 301 300 299 298 296 295 295 295 294 293 292 291 291 291 291 290 289 290 290 291 291 290 288 288 288 287 286 284 282 282 281 280 279 278 278 277 278 279 279 279
309 306 302 300 300 299 297 296 295 295 294 291 290 289 290 290 292 291 290 289 290 290 289 289 289 288 288 286 286 285 283 281 281 280 279 278 278 277 277 278 278 278 279
307 303 301 300 299 297 296 296 295 292 290 289 289 289 289 289 291 291 290 289 289 289 289 288 288 287 286 286 285 283 281 281 281 279 278 279 278 277 277 277 277 277 278
304 302 301 298 297 296 296 293 290 290 289 289 289 289 289 289 289 290 290 289 288 288 288 288 287 286 287 286 284 282 281 280 279 277 277 278 277 276 276 276 276 277 277
303 304 299 299 296 295 292 290 290 289 289 289 289 289 289 289 290 290 290 288 287 287 288 287 286 287 286 284 282 281 280 279 279 277 276 277 277 276 276 276 276 277 277
301 297 301 299 294 291 290 290 289 289 289 289 289 289 289 289 290 290 290 287 287 287 287 287 287 286 285 283 282 281 280 279 279 278 276 277 277 276 276 275 275 276 276
297 301 301 294 291 290 290 289 289 289 289 289 289 289 289 289 289 289 289 288 287 287 287 285 284 284 283 283 282 281 280 280 279 278 277 277 276 276 276 275 275 275 276
300 299 293 291 290 290 289 289 289 289 289 289 289 288 289 289 289 289 289 288 287 287 286 285 284 284 283 283 282 281 280 280 279 278 278 277 277 277 276 275 275 274 275
298 292 291 290 290 290 289 290 290 289 289 288 287 288 287 288 287 288 288 288 287 287 286 284 283 283 283 283 282 281 280 280 280 279 278 278 277 276 276 276 275 274 274

GFSMW_850_thetae_012.txt.gz
Theta_e
325 326 325 325 325 325 324 324 327 327 325 324 321 320 318 318 318 313 312 311 310 308 308 307 307 306 306 306 305 304 304 303 303 303 301 300 300 302 303 302 301 301 300
326 327 328 329 330 329 328 326 325 323 323 321 319 319 319 317 311 311 311 310 309 308 307 307 306 305 305 304 304 302 301 300 301 301 300 300 300 300 301 301 300 300 299
327 328 328 328 326 325 324 323 321 320 319 317 315 313 312 311 311 310 309 308 307 306 305 305 304 303 303 301 302 301 301 300 300 299 299 299 299 298 298 298 297 297 296
326 324 322 322 320 319 319 318 317 314 312 312 313 313 314 314 311 308 307 306 305 304 304 304 301 300 300 300 301 299 299 298 298 297 297 296 296 297 296 296 296 294 293
320 318 318 317 315 313 313 313 312 312 312 312 312 312 311 309 307 307 306 306 306 305 304 302 301 300 300 300 300 299 297 297 297 296 295 295 294 293 293 293 293 292 292
317 315 314 314 313 313 312 312 312 312 312 312 311 309 306 305 305 304 303 301 299 298 297 297 300 300 299 300 298 297 297 296 295 293 292 292 292 291 291 291 291 291 290
316 315 314 314 313 313 312 311 311 311 311 308 305 302 301 299 299 297 296 296 295 295 295 295 297 299 299 298 298 296 296 294 293 292 291 291 291 290 290 290 290 290 290
317 316 315 314 313 311 310 310 310 307 305 302 301 300 298 297 296 295 294 295 294 294 294 296 297 298 298 297 296 296 295 293 292 291 291 291 290 290 290 290 289 289 289
317 316 314 312 311 310 310 308 306 304 302 301 299 298 297 296 294 294 295 294 294 294 295 297 298 298 297 296 297 295 294 292 291 291 290 290 290 289 289 289 289 289 288
317 315 313 311 310 310 307 307 303 303 306 302 298 298 297 296 295 294 294 292 292 293 294 296 297 298 296 296 295 293 292 291 290 290 290 290 289 289 288 288 288 288 287
317 314 312 311 309 306 306 305 305 305 301 298 298 297 297 296 295 295 294 293 291 293 293 295 296 296 296 294 293 293 291 290 290 290 290 290 289 288 288 288 287 287 286
316 313 310 309 307 305 303 302 303 301 299 298 297 297 297 296 295 295 294 293 293 293 293 293 294 294 294 293 293 293 290 290 290 290 289 289 288 288 287 287 287 286 285
314 311 309 308 306 304 302 303 302 303 299 297 297 297 296 296 295 295 294 293 293 293 294 294 293 293 293 293 292 290 290 290 290 289 289 288 287 287 286 286 285 285 284
312 310 308 306 304 302 303 303 306 299 298 297 296 296 296 296 295 295 294 293 292 293 293 293 293 293 292 292 290 290 290 289 289 289 288 287 286 285 284 283 283 283 283
311 310 308 306 304 302 303 304 301 299 298 297 296 296 295 295 295 294 293 292 292 293 293 292 291 291 290 289 289 289 289 289 288 287 285 284 283 282 281 281 281 281 281
311 310 309 307 304 303 304 301 300 298 297 296 296 295 295 294 294 294 293 292 292 293 293 293 292 291 290 291 290 289 288 287 286 284 283 283 282 281 280 280 279 279 280
311 310 309 307 304 302 301 301 299 297 296 295 295 294 293 293 293 293 293 292 292 292 292 293 292 291 290 288 288 288 287 285 284 283 282 282 281 281 281 280 280 281 281
311 311 309 306 304 301 300 300 298 296 295 295 295 292 292 292 292 292 293 292 292 292 291 291 291 290 288 288 288 287 286 284 283 282 282 281 281 281 279 279 280 280 281
312 311 308 305 302 301 300 299 297 296 295 295 291 291 291 292 292 292 292 292 292 291 291 290 290 289 287 288 287 286 285 283 282 282 281 280 280 279 278 278 279 280 280
311 309 306 303 301 300 300 298 296 296 293 290 290 289 290 291 291 292 292 292 291 291 289 289 288 288 287 286 287 286 283 282 282 282 280 279 279 278 277 277 278 279 279
309 305 304 300 300 302 299 296 296 292 290 290 289 289 290 291 290 291 291 291 291 290 288 287 288 287 286 286 286 285 282 281 281 281 281 279 278 278 277 276 277 277 276
304 303 299 300 302 299 296 293 291 290 290 289 289 289 290 290 290 291 291 291 290 289 287 287 287 286 287 286 285 283 282 281 280 280 280 278 277 277 277 277 276 276 276
299 301 300 300 301 295 293 291 291 290 289 289 289 290 290 290 290 290 291 291 290 289 289 288 287 287 287 284 284 283 282 281 280 280 279 279 278 278 277 276 277 276 277
295 296 300 299 294 297 291 290 290 289 290 289 289 290 289 289 289 290 290 290 290 289 288 288 288 287 286 285 284 283 282 281 281 280 279 279 279 279 278 278 277 276 276
298 300 299 297 292 290 290 290 290 290 290 289 289 289 289 288 288 288 289 290 289 288 289 288 287 286 285 285 284 283 282 281 281 280 279 280 279 279 279 278 277 277 276
299 296 295 294 290 290 290 290 290 290 289 289 289 290 289 289 288 288 288 289 289 288 287 287 286 285 284 283 283 283 282 281 281 280 280 281 279 279 279 278 278 278 276

GFSMW_850_thetae_015.txt.gz
Theta_e
329 330 331 332 331 332 333 331 329 332 328 327 326 323 320 320 318 316 312 311 311 310 309 310 310 310 309 308 308 307 306 303 302 302 304 303 302 302 303 303 304 304 303
329 331 332 332 333 333 333 329 329 330 328 326 322 320 320 319 315 313 311 311 310 310 309 309 309 308 307 306 305 304 304 302 302 302 302 301 300 301 301 301 301 300 301
330 331 332 333 332 332 332 330 329 327 324 321 321 321 319 314 314 313 312 310 309 309 308 308 307 306 305 303 302 302 303 301 301 301 300 299 299 299 298 298 298 298 298
329 331 331 331 330 328 327 325 323 321 321 319 317 317 317 317 314 312 311 310 309 308 307 305 304 304 303 302 302 301 301 300 300 299 299 299 298 298 297 296 295 296 296
329 327 326 324 323 322 321 320 318 316 316 316 316 316 314 312 311 310 309 307 305 302 300 299 299 300 301 302 302 301 300 299 299 298 297 297 296 295 294 294 294 294 293
325 322 321 319 319 318 318 316 315 315 315 314 314 312 310 308 307 304 301 300 298 298 297 297 298 298 300 301 301 300 299 299 298 297 295 295 294 293 293 293 293 293 293
321 319 318 317 317 317 317 316 314 313 313 311 309 307 304 301 300 299 298 298 297 297 297 297 298 299 299 300 299 299 298 298 296 295 294 293 293 293 292 292 292 292 291
319 318 317 317 317 317 315 314 313 312 309 306 303 303 304 304 299 298 298 297 297 296 296 296 298 299 299 299 298 298 298 297 295 294 294 293 292 292 292 291 291 291 290
319 318 318 318 317 316 314 314 312 309 305 304 305 305 300 298 299 298 298 296 296 295 295 296 297 298 298 297 297 296 296 295 294 293 293 292 292 291 291 290 290 290 290
319 319 318 317 316 315 314 312 309 306 305 307 304 299 299 299 299 298 297 296 295 295 295 295 296 297 297 298 297 296 295 295 294 292 292 292 292 292 291 290 290 290 289
320 319 317 316 315 314 311 309 307 306 304 302 302 300 300 299 298 298 297 296 295 295 295 295 295 295 296 296 296 295 295 295 293 292 292 292 291 291 290 290 289 288 288
320 320 317 316 314 312 310 307 307 305 303 304 300 300 300 299 298 298 297 296 295 295 294 295 295 295 294 294 294 294 294 293 292 292 292 291 290 290 289 288 288 287 287
321 320 318 315 314 311 309 307 305 304 303 301 300 300 299 299 298 297 297 296 295 294 294 295 295 294 294 294 294 294 293 292 292 291 291 290 290 289 287 287 286 286 285
321 320 318 315 313 311 308 306 305 304 303 300 299 299 299 299 298 297 296 296 295 294 294 295 294 293 293 292 292 292 291 291 291 291 290 289 287 286 285 284 284 284 284
320 319 317 314 312 310 307 306 305 305 301 300 299 299 298 298 297 296 296 295 294 294 294 294 294 294 293 291 290 291 291 290 290 289 288 286 285 284 283 282 282 282 282
319 318 315 313 311 309 307 306 306 304 301 300 299 298 298 297 296 295 295 295 294 294 294 294 294 294 293 292 289 289 288 288 288 287 286 285 284 284 282 282 281 281 281
318 316 315 313 311 309 306 306 304 302 300 299 298 298 297 296 295 294 294 294 294 294 294 293 293 293 293 291 289 288 288 287 287 286 285 284 284 283 283 282 281 281 281
316 315 314 313 312 309 306 304 303 301 299 298 297 297 295 294 293 293 294 294 294 294 293 293 292 292 291 290 288 288 287 287 286 285 284 284 283 282 282 279 280 281 281
315 315 314 313 312 308 305 303 302 299 298 298 296 294 293 293 293 293 293 294 294 293 293 292 292 291 291 289 288 287 287 286 285 284 284 283 281 281 279 280 279 280 280
315 314 314 313 310 306 303 301 299 299 297 296 294 293 292 292 292 293 293 293 293 293 292 291 290 290 289 288 287 287 286 285 284 284 283 283 281 280 278 277 277 279 280
315 314 313 311 308 303 299 300 298 297 294 294 291 292 292 292 293 292 292 293 293 293 292 291 290 289 288 287 286 286 285 284 283 283 283 283 281 279 278 277 278 278 276
314 312 309 305 300 299 299 297 295 294 294 291 291 292 292 292 292 292 292 293 293 292 292 291 290 289 288 287 287 285 284 283 282 282 282 281 280 279 279 279 278 277 278
309 305 301 298 298 300 298 294 294 294 291 290 291 292 292 292 292 292 292 292 292 292 291 291 290 289 289 288 287 285 284 283 283 282 281 281 280 280 280 279 279 279 279
301 299 298 298 299 297 295 292 292 291 290 290 290 290 291 291 290 290 291 292 292 291 291 290 290 289 289 288 287 286 284 283 282 282 282 281 281 281 280 281 281 280 279
297 298 299 298 295 293 292 292 291 290 290 290 290 290 290 290 291 290 290 290 290 291 291 290 290 289 288 287 286 286 285 284 283 282 281 282 282 282 282 281 281 280 280
298 298 296 294 293 293 293 291 290 290 290 290 289 290 291 291 291 290 290 289 289 289 289 289 289 288 287 286 285 283 283 283 282 282 281 282 282 282 281 281 281 280 280

GFSMW_850_thetae_018.txt.gz
Theta_e
329 330 330 329 328 332 335 333 331 329 329 325 326 326 322 320 319 317 314 312 311 311 310 310 311 310 309 308 307 305 304 303 303 302 302 302 302 302 301 301 301 301 303
331 331 332 332 332 333 335 333 331 327 327 327 326 321 321 320 318 315 312 312 311 311 310 309 309 308 307 305 303 303 302 303 303 301 301 301 300 300 300 299 298 298 298
330 331 333 333 333 333 333 331 328 327 326 325 322 321 321 319 315 314 312 312 311 309 308 308 306 304 304 303 302 301 302 302 302 300 300 300 300 299 298 298 297 297 296
330 331 333 334 332 331 330 329 329 328 324 322 321 320 317 316 315 313 312 311 310 309 306 303 302 301 300 300 301 302 302 301 301 300 299 299 298 296 296 295 294 294 294
329 331 332 332 332 331 330 327 324 323 321 318 318 318 316 314 313 311 309 307 305 303 299 298 298 296 295 297 300 301 301 301 299 300 299 297 296 295 294 293 293 293 292
329 331 330 329 327 326 323 322 319 317 317 317 317 316 313 311 309 309 305 306 299 298 298 297 295 295 297 298 300 301 300 300 299 298 298 295 294 294 293 293 292 292 292
329 328 325 323 323 322 320 317 316 316 316 315 315 314 311 306 310 310 303 299 297 297 296 296 295 295 297 299 300 300 299 297 298 297 295 294 294 293 293 293 292 292 291
326 324 321 320 319 319 318 316 316 315 313 311 309 307 309 311 307 301 297 296 296 295 295 295 293 295 298 299 298 297 297 296 296 296 294 294 293 293 292 291 291 291 290
323 321 319 319 319 318 317 316 315 313 310 306 305 309 310 303 299 297 296 296 295 294 295 294 294 295 297 298 296 298 296 296 295 295 294 293 292 292 292 292 291 290 290
322 320 319 319 318 318 316 315 314 311 307 306 308 309 306 301 298 297 298 296 295 294 295 295 295 295 295 297 298 297 296 296 295 295 293 292 292 292 292 291 291 290 289
322 320 319 319 319 317 316 315 313 308 306 306 308 306 301 300 299 299 298 297 296 295 295 295 295 295 295 295 295 293 295 294 294 294 293 292 292 291 290 290 289 289 288
322 321 320 319 318 317 316 314 310 307 306 305 306 302 301 300 299 299 298 297 297 296 295 295 295 295 295 295 295 294 294 293 293 293 292 292 291 291 290 289 288 287 287
323 321 320 319 317 316 315 312 309 308 306 304 303 301 301 300 299 299 298 298 297 296 295 294 295 295 293 293 293 293 293 293 292 292 291 291 290 289 288 287 286 285 284
323 322 321 319 317 316 314 311 308 307 305 303 302 301 300 300 299 299 298 297 297 296 294 294 294 295 294 293 292 292 292 291 291 291 290 289 288 287 286 285 284 283 282
322 322 322 320 318 316 314 311 308 307 305 305 301 300 300 299 299 298 297 296 296 295 295 294 294 294 294 293 292 290 290 290 290 289 289 288 287 286 285 284 283 283 282
318 320 321 321 318 315 314 311 308 307 306 303 300 300 299 299 298 297 295 295 295 295 295 294 294 294 294 294 293 292 288 288 287 288 287 286 285 285 284 283 283 282 281
317 318 319 320 318 315 313 311 308 307 306 302 300 300 299 298 297 295 295 294 294 294 295 294 294 293 293 293 292 290 288 288 287 287 286 285 284 284 284 283 282 280 281
317 317 317 317 316 314 312 310 307 306 304 301 300 298 298 296 294 293 294 294 294 294 294 294 293 293 293 292 292 290 288 287 287 286 285 284 284 283 282 281 279 279 279
315 315 315 316 315 314 312 309 306 304 302 300 298 298 295 295 293 293 293 293 293 294 294 294 293 292 291 291 290 290 288 287 286 285 284 284 284 283 282 280 279 279 279
314 315 315 315 314 313 311 307 304 302 299 299 296 296 294 292 293 293 293 293 293 293 293 293 292 291 291 290 289 288 287 286 286 284 284 283 283 283 282 279 279 279 279
315 315 315 314 313 310 307 303 300 299 297 296 297 294 292 293 293 293 293 292 292 293 293 292 292 291 290 289 288 287 287 285 285 283 282 283 283 282 280 280 279 280 279
314 313 312 308 303 301 301 300 298 295 296 294 293 292 291 292 292 292 291 292 292 293 293 292 292 291 290 289 288 288 287 285 284 283 282 282 281 281 280 280 280 280 279
308 305 304 302 299 299 298 298 297 294 293 293 293 290 290 291 290 290 290 290 291 292 292 292 291 291 290 289 289 288 287 286 284 283 283 282 281 281 281 281 281 281 280
301 300 299 299 298 298 298 295 294 292 293 293 291 290 290 290 290 290 291 290 291 292 292 292 291 290 290 289 288 288 287 286 285 283 283 282 281 282 281 281 281 281 280
299 298 299 298 298 298 298 296 294 293 292 290 290 290 290 290 290 291 291 291 290 289 290 291 291 291 290 289 289 287 286 286 285 284 283 282 282 282 282 281 281 281 280
299 298 299 298 298 296 294 293 292 290 290 290 290 290 290 290 290 291 291 291 290 289 289 289 289 289 289 289 288 287 287 284 284 283 283 282 282 282 282 281 281 281 280

GFSMW_850_thetae_021.txt.gz
Theta_e
327 327 327 328 331 332 331 330 329 328 328 327 323 324 325 322 319 317 316 312 311 311 311 311 311 310 309 308 306 301 300 300 299 301 301 300 297 300 301 300 300 299 298
329 328 328 329 331 332 333 331 330 328 329 325 324 325 321 319 318 316 314 311 311 311 310 310 308 306 303 301 300 299 298 299 301 302 301 299 299 299 299 299 299 297 296
329 329 329 330 334 333 333 331 331 330 327 326 324 321 320 319 318 315 313 312 311 311 309 308 306 303 302 300 299 297 299 302 302 301 300 299 298 297 297 297 295 295 295
330 331 331 331 333 334 331 331 329 326 326 327 321 321 321 319 316 314 312 311 312 310 308 307 304 300 297 296 295 296 299 301 301 300 300 299 298 296 295 294 293 293 293
330 331 332 333 333 333 331 328 327 328 327 322 321 321 319 317 314 313 312 311 308 308 306 303 297 296 294 293 295 299 300 301 301 300 299 299 298 296 294 293 293 293 292
330 331 332 333 332 330 328 327 327 323 322 321 320 318 317 316 314 313 312 309 310 305 298 296 295 294 293 294 297 299 300 300 300 299 297 297 295 294 293 293 293 292 292
331 332 333 332 330 329 328 326 323 322 321 318 318 317 316 315 314 310 310 312 304 297 296 294 294 293 293 296 298 298 298 299 297 296 296 296 294 294 293 292 292 291 291
330 331 330 329 328 327 325 322 321 320 318 317 317 316 315 313 309 310 310 301 296 295 294 294 293 292 294 297 298 298 295 296 296 295 295 295 294 293 293 292 292 291 291
329 328 327 326 325 323 322 319 317 316 316 316 316 315 312 309 311 307 300 296 295 294 294 293 292 292 293 295 296 297 297 296 295 295 295 294 294 292 292 292 292 291 290
327 325 324 322 321 321 320 317 316 316 315 313 311 308 309 309 306 300 297 296 295 295 294 293 293 293 293 294 295 296 295 295 295 294 294 294 293 292 292 292 290 290 289
324 322 321 319 319 318 318 317 315 314 313 311 308 307 308 305 300 298 298 297 296 296 295 294 294 293 295 295 295 295 294 294 294 294 293 292 292 292 292 290 290 289 288
324 321 319 318 318 318 318 317 315 314 312 309 306 307 305 301 300 299 299 298 298 297 296 295 293 294 295 295 294 293 292 293 293 293 292 292 292 291 290 289 288 287 286
323 321 319 319 318 318 318 316 315 313 310 307 306 306 304 301 300 300 299 298 298 297 297 296 294 294 295 295 294 292 292 292 292 291 291 291 290 289 288 287 287 286 285
323 321 320 319 319 318 317 316 315 313 309 307 306 306 303 301 300 299 299 298 297 297 296 296 294 294 294 294 294 293 292 292 291 291 290 289 289 288 287 286 285 284 283
322 322 320 319 319 318 317 316 315 313 309 307 305 304 301 301 300 299 299 298 297 296 295 294 294 294 294 294 294 293 293 292 290 288 288 288 288 287 286 285 284 284 283
317 318 321 320 319 318 317 316 314 311 308 307 305 303 300 300 300 299 298 295 294 294 294 294 295 294 294 293 293 293 293 291 288 287 287 286 285 286 285 284 284 283 282
317 317 320 321 320 318 317 316 314 311 308 307 306 302 300 300 298 298 295 294 294 294 294 294 294 294 294 293 293 292 292 290 288 288 286 285 285 285 284 284 283 281 280
317 316 316 317 318 318 316 315 313 310 307 306 303 300 300 298 296 295 294 293 293 293 293 293 294 294 293 293 293 292 291 290 288 287 286 285 284 284 284 283 282 281 280
314 314 314 315 316 316 315 313 311 307 306 302 300 299 297 296 297 293 293 293 293 293 293 293 293 293 293 292 291 291 290 289 288 286 286 284 284 284 283 283 282 280 280
315 315 315 315 315 314 313 310 307 305 302 299 299 297 296 297 293 292 294 293 293 292 292 292 293 293 292 292 291 290 289 288 287 286 285 284 283 283 283 282 280 280 280
314 314 315 314 311 309 309 306 302 300 298 298 297 297 297 294 293 293 293 292 292 291 292 293 293 292 292 292 291 289 288 287 287 286 284 283 283 282 282 281 280 280 280
312 312 312 309 305 304 304 301 299 297 297 298 299 299 296 293 292 291 291 290 290 290 291 292 292 292 292 292 290 289 288 288 288 286 285 283 282 281 281 281 281 281 280
310 308 308 304 302 301 300 301 301 300 301 300 298 293 293 291 290 290 290 290 290 290 291 292 292 292 291 291 290 289 288 288 287 286 285 284 283 282 281 281 281 281 281
304 303 302 301 301 300 299 299 299 298 295 295 293 292 290 290 290 290 290 291 291 291 290 290 291 291 291 291 290 289 289 288 286 286 285 284 283 282 282 282 281 281 281
300 300 300 300 299 299 298 296 296 294 293 291 290 290 290 290 290 290 290 291 291 291 290 289 289 288 289 289 290 290 289 288 287 285 285 284 284 283 282 282 281 281 281
300 299 299 298 296 294 294 293 292 290 290 290 290 290 290 290 290 290 290 290 291 291 290 290 290 289 288 288 288 289 289 288 287 286 285 283 283 283 282 282 282 281 281

GFSMW_850_thetae_024.txt.gz
Theta_e
329 328 328 328 328 324 319 323 321 319 324 327 326 325 321 322 323 321 318 315 311 311 311 311 310 310 309 307 302 300 298 296 296 299 300 300 298 299 299 299 299 298 297
327 328 328 328 329 329 328 328 325 323 325 325 326 323 323 323 322 318 316 313 311 311 311 311 309 309 306 301 299 298 296 295 299 301 301 300 298 299 298 297 297 297 296
326 326 327 328 329 330 331 330 328 328 327 328 327 323 324 323 319 317 316 312 311 312 312 311 311 309 303 300 297 296 295 297 299 300 300 299 298 297 297 296 295 294 294
327 328 328 327 329 330 331 329 330 329 329 329 324 324 322 319 318 317 315 312 312 312 312 310 309 306 300 296 294 294 295 298 300 300 300 299 299 298 296 296 295 294 293
328 328 328 329 331 331 331 330 330 329 330 325 325 321 319 319 319 317 314 313 312 311 308 307 303 298 295 294 293 294 295 299 300 300 299 299 297 296 296 294 293 292 292
328 329 329 330 330 331 330 330 329 330 327 326 323 321 321 320 318 315 313 313 310 306 305 302 297 295 294 293 293 295 297 298 297 298 297 296 296 295 294 294 293 292 292
328 330 331 331 332 331 330 328 326 327 327 328 322 321 321 320 317 315 313 311 308 306 299 296 294 294 293 292 293 295 297 297 296 296 295 295 295 295 294 293 293 292 292
329 330 331 332 332 331 328 327 326 326 325 322 321 320 318 315 313 312 309 308 303 298 296 296 293 293 292 292 292 293 296 296 296 296 295 295 294 295 294 293 292 292 292
330 331 332 332 331 330 329 328 327 324 321 319 318 316 314 313 312 309 309 303 298 296 295 294 293 292 292 291 293 294 295 295 294 294 295 294 293 294 293 292 292 291 290
330 331 332 331 330 329 328 325 324 324 321 318 317 315 313 310 309 307 304 300 299 296 295 295 294 293 291 292 294 293 294 294 294 294 294 294 294 293 293 292 291 290 290
330 330 330 328 328 327 326 324 324 322 321 317 316 315 312 309 309 309 301 299 299 299 296 295 295 295 292 293 295 295 293 293 293 293 293 293 292 292 292 291 291 290 288
328 328 327 326 325 324 322 320 320 318 317 316 315 314 311 308 309 305 300 300 299 298 295 296 296 296 293 293 295 295 294 293 292 293 292 292 292 291 291 290 288 287 286
327 326 325 325 325 322 320 319 318 318 317 316 314 312 308 308 308 302 301 300 299 298 297 297 296 296 293 293 294 294 294 293 292 292 291 291 291 290 289 288 287 286 286
325 324 324 324 322 320 319 318 318 317 316 314 313 310 307 307 305 301 300 299 298 297 297 296 295 294 294 294 294 294 294 293 292 290 291 289 289 288 287 287 286 285 284
324 323 321 321 320 319 318 318 318 317 316 314 310 307 306 305 301 301 299 299 297 297 295 294 293 294 294 294 294 294 294 293 293 292 290 287 286 286 285 285 285 284 284
319 321 322 320 318 318 318 318 317 316 315 312 309 307 305 302 301 300 298 296 296 296 294 293 294 294 294 294 294 293 293 293 292 291 289 287 286 285 285 285 284 283 283
317 317 319 319 319 319 319 318 317 316 315 310 307 305 303 301 300 298 297 297 298 296 293 294 294 294 294 294 294 293 293 292 292 291 289 287 286 285 284 284 283 283 282
315 315 315 316 318 319 318 318 317 315 312 308 305 304 301 299 298 297 297 298 295 294 294 293 293 293 293 293 293 293 292 291 291 290 288 287 286 285 284 283 283 282 282
314 314 314 314 315 317 317 316 315 311 307 305 302 298 297 296 296 297 298 297 295 294 293 293 293 293 293 293 293 292 291 291 290 289 287 286 284 284 283 283 282 282 281
314 314 314 314 314 315 316 315 312 308 304 299 297 296 296 297 298 299 299 294 294 293 292 291 291 292 292 293 292 292 291 290 289 288 287 286 284 283 283 282 282 281 280
313 313 313 313 313 312 312 311 307 302 298 296 296 297 298 300 300 297 293 293 292 291 290 290 290 292 292 292 292 292 291 290 288 287 287 286 285 283 283 282 281 281 280
311 310 310 309 305 303 304 303 302 301 300 300 299 299 300 300 295 293 292 290 290 290 290 289 290 291 292 292 292 291 291 290 289 288 287 286 285 284 282 281 281 281 281
306 305 305 304 302 301 300 300 302 300 300 300 299 296 293 293 291 290 290 290 290 290 290 290 290 289 291 291 290 290 290 290 289 288 287 286 285 284 283 282 281 281 281
301 300 300 300 301 300 299 299 298 297 295 294 292 291 290 290 290 290 289 289 290 290 290 290 290 290 289 289 289 289 290 290 289 289 287 286 285 284 284 283 282 281 281
299 300 300 299 298 298 296 294 292 291 290 290 290 289 290 290 290 289 289 289 290 290 290 290 290 290 289 289 288 288 288 289 289 289 287 286 286 285 284 283 282 281 281
299 298 297 296 294 293 293 292 291 291 290 290 290 290 290 290 290 290 290 290 290 290 290 290 290 289 288 287 289 288 288 288 288 288 287 287 286 285 285 283 282 282 281

GFSMW_850_thetae_030.txt.gz
Theta_e
327 325 322 323 326 327 326 326 325 323 324 325 325 326 325 325 321 320 320 319 318 317 314 311 310 310 309 307 306 302 298 296 296 295 296 296 298 298 298 298 297 297 295
330 328 324 324 325 322 324 325 326 325 325 325 325 325 326 324 322 321 320 317 314 312 311 311 310 309 308 307 305 301 298 296 295 295 296 297 297 298 298 297 297 296 295
329 329 328 327 327 326 321 324 325 326 327 326 326 326 326 324 322 320 319 317 313 311 310 310 310 308 307 304 301 299 299 296 295 295 296 298 297 297 297 297 296 296 294
328 328 328 329 327 328 326 323 321 321 324 325 325 326 326 325 323 321 319 316 314 312 311 310 309 307 306 301 300 304 299 295 294 295 296 296 298 298 297 296 296 295 295
328 328 328 328 328 327 326 323 324 323 324 324 325 326 326 325 323 320 318 316 314 313 311 310 308 305 307 308 312 310 296 293 294 295 295 295 295 296 295 295 295 294 294
325 326 327 328 328 327 328 326 324 325 324 323 325 326 326 324 322 321 318 316 315 313 310 308 306 305 309 311 311 296 293 292 293 294 294 295 295 295 294 295 294 294 294
323 325 325 326 327 327 328 329 325 326 326 324 325 326 325 325 323 323 320 318 315 314 311 309 308 307 309 310 298 293 292 292 293 294 294 294 294 293 293 294 293 293 293
324 323 325 325 326 326 326 328 327 326 325 326 327 326 327 325 323 323 321 318 318 315 312 309 306 309 311 301 296 293 292 292 293 293 293 293 293 293 293 293 293 293 292
321 323 324 326 325 325 325 326 327 328 327 327 327 326 327 325 325 324 321 318 316 313 311 305 307 310 304 297 294 292 292 293 293 293 294 292 292 293 293 294 293 292 292
321 323 324 325 326 326 327 327 328 329 328 327 326 327 327 325 324 322 321 319 315 312 306 306 306 300 298 294 293 294 293 294 294 293 293 292 291 291 292 292 292 291 291
323 322 323 324 325 325 327 329 329 329 327 327 326 325 325 322 322 321 320 318 314 308 303 303 300 296 295 295 298 294 292 293 294 294 293 291 291 292 291 291 291 291 290
322 324 325 325 326 327 328 329 329 328 326 326 326 324 321 322 321 319 317 314 310 304 302 300 297 296 295 298 296 293 293 293 293 294 293 292 291 291 291 291 289 288 287
322 324 325 326 327 328 329 330 328 327 325 324 324 322 322 320 318 316 314 310 306 303 300 299 297 296 297 299 294 294 294 294 294 293 293 293 292 291 291 288 287 286 286
321 323 324 325 328 329 329 328 327 326 325 324 323 321 320 318 316 314 311 307 303 300 299 298 297 295 297 298 294 294 294 294 294 293 294 293 292 291 291 289 287 286 285
320 322 323 326 327 328 328 327 327 327 326 323 321 319 317 315 313 311 308 303 301 299 298 297 296 296 298 298 294 294 294 294 294 293 293 293 292 291 290 288 287 286 285
320 321 322 322 323 324 324 324 324 324 323 320 318 316 314 312 311 308 304 302 300 299 297 296 295 297 299 295 294 293 293 294 293 293 293 293 292 291 289 288 287 286 284
317 317 318 318 318 318 317 317 317 318 318 318 317 315 312 310 308 305 302 300 299 297 296 296 297 297 298 294 293 293 292 292 293 293 293 293 291 290 289 288 286 284 284
314 314 314 314 313 313 313 315 316 316 315 315 314 311 309 307 304 301 298 297 296 296 297 297 297 298 296 293 292 291 291 292 292 292 293 292 291 290 289 287 286 284 283
313 313 313 313 313 313 314 314 315 314 312 310 308 307 305 303 300 297 296 297 297 297 297 298 298 294 293 291 290 289 290 291 292 292 292 291 290 289 288 286 286 284 283
313 313 313 313 312 312 312 311 311 310 307 305 303 300 298 297 297 297 298 297 298 298 299 296 293 291 290 289 289 289 290 291 291 291 291 291 290 289 288 287 286 284 283
312 311 311 312 311 309 307 308 306 304 301 300 299 298 298 299 298 298 299 298 298 294 292 292 290 290 289 289 289 289 289 290 291 291 291 291 290 289 288 287 287 285 283
308 308 308 307 305 304 304 302 300 298 298 298 299 300 299 299 297 294 293 291 290 290 290 290 289 289 289 289 289 289 289 289 291 291 290 290 290 290 288 287 287 286 283
305 304 304 302 300 299 300 300 300 299 298 296 294 292 291 290 290 289 289 289 289 289 289 289 289 289 289 289 289 290 289 289 289 290 290 289 289 289 289 288 287 286 285
302 301 301 300 299 298 298 297 294 292 291 290 290 290 290 290 290 289 289 289 289 289 289 290 290 290 290 289 290 290 290 290 289 288 288 288 287 287 288 288 287 286 286
300 299 300 299 297 295 294 292 291 291 291 290 290 290 290 290 289 289 290 290 290 290 290 290 290 290 290 290 290 290 290 290 289 288 287 288 288 287 287 287 287 286 286
299 298 296 295 293 293 292 292 291 291 290 290 290 290 290 289 289 288 287 286 285 284 283 283 283 284 286 287 288 288 289 290 290 289 288 287 288 287 287 287 287 286 286

GFSMW_850_thetae_033.txt.gz
Theta_e
324 326 326 322 321 323 325 326 326 324 320 318 324 325 326 325 325 324 320 320 319 319 319 318 314 311 310 309 309 305 297 296 297 296 296 297 297 297 298 298 297 297 296
328 327 326 324 323 323 323 326 326 324 320 319 323 325 325 326 326 323 320 320 319 318 317 314 311 310 310 308 306 301 301 302 300 297 296 300 298 297 297 296 297 296 296
327 328 327 324 322 323 324 326 326 326 323 322 324 325 325 326 325 321 320 319 318 316 314 311 311 310 308 306 302 308 311 304 305 297 295 299 299 297 297 296 296 296 296
329 328 328 326 324 323 324 324 324 324 326 325 324 324 325 325 325 322 321 319 317 313 312 311 310 309 307 305 308 310 310 308 296 295 294 294 294 298 297 296 296 295 295
329 329 328 328 327 326 325 323 322 324 326 324 325 324 323 324 324 322 320 317 315 313 311 310 310 310 308 308 312 310 302 306 295 295 293 293 294 294 296 296 295 294 294
328 328 329 328 328 328 328 327 327 325 325 325 323 323 325 325 325 323 321 318 316 313 312 311 310 310 309 308 310 311 308 295 297 293 293 294 295 295 295 295 294 294 293
327 328 327 327 327 328 328 328 328 326 325 322 323 326 326 326 326 324 323 320 317 316 316 313 311 311 307 309 310 306 297 296 293 293 293 292 292 293 294 294 294 293 293
325 327 327 327 326 326 327 329 328 326 322 323 324 326 326 326 325 325 324 321 320 318 314 311 309 307 306 308 298 299 295 295 295 294 293 293 292 292 293 294 294 294 293
318 319 324 326 325 325 326 326 328 328 325 325 325 325 326 325 325 325 324 322 320 317 312 311 309 306 307 304 305 295 296 299 297 293 293 293 292 292 292 292 293 293 292
319 319 320 322 322 323 325 325 326 326 327 327 327 326 326 325 325 325 323 322 321 315 312 311 306 305 303 299 297 296 301 296 293 293 292 293 292 291 291 291 291 291 292
321 321 321 322 323 324 325 325 325 325 327 327 328 326 325 325 324 323 323 321 318 314 312 309 303 303 304 301 296 300 298 293 293 293 294 293 292 291 291 291 291 291 291
321 322 322 323 323 324 324 325 326 327 327 323 323 323 323 323 322 320 320 320 319 314 310 304 302 300 297 295 299 298 296 294 293 293 293 294 293 292 291 291 291 290 289
320 321 322 324 324 325 325 325 327 328 325 325 323 323 322 322 322 320 320 319 317 313 307 302 300 299 298 296 297 301 295 294 294 294 294 293 293 293 292 291 291 289 288
316 320 323 324 325 326 326 327 328 327 326 325 324 324 323 323 322 320 319 317 314 308 306 301 299 299 296 296 298 300 294 294 294 294 294 294 293 293 292 291 291 289 288
316 320 321 323 325 326 327 328 328 328 327 326 325 324 323 320 319 317 314 311 307 303 300 299 298 297 296 297 298 299 294 294 294 294 294 294 293 293 293 291 290 289 288
319 320 321 321 322 322 323 322 321 320 320 320 319 320 319 316 314 311 308 305 302 300 299 297 296 295 296 298 298 298 294 293 293 293 293 293 293 293 293 291 290 289 288
316 317 317 317 317 317 316 315 315 315 316 316 316 315 314 312 310 309 306 303 300 299 297 296 295 297 299 298 297 296 293 293 293 292 292 293 293 293 293 292 290 289 288
313 313 313 313 313 313 313 314 314 314 315 314 314 313 311 309 307 306 303 301 299 296 297 298 298 298 298 297 297 293 292 291 290 290 291 292 292 293 292 291 290 289 287
312 313 313 313 313 313 312 312 312 312 312 311 309 308 306 305 304 302 300 298 297 299 298 298 298 298 298 294 292 290 289 289 289 290 291 292 292 292 292 291 289 288 287
312 312 312 312 312 311 310 309 308 308 308 306 305 303 302 300 299 298 298 298 298 297 298 298 297 294 292 291 290 289 289 289 289 289 290 291 292 291 291 290 289 288 287
310 310 310 311 310 308 307 307 306 304 300 299 299 298 298 298 298 298 298 298 297 295 293 292 291 290 290 289 289 289 289 289 289 289 289 290 291 291 291 290 289 289 287
308 308 309 308 305 304 305 303 301 298 298 299 299 299 299 298 296 293 291 290 290 289 289 289 289 289 289 289 289 289 289 289 290 290 289 289 289 291 290 290 289 289 287
305 304 305 303 301 301 301 301 299 299 299 297 295 293 291 290 290 290 289 289 289 289 290 290 290 290 290 290 290 290 290 290 290 290 290 290 289 290 290 289 289 289 288
302 302 302 301 300 298 298 297 294 292 291 291 290 290 290 290 289 289 289 289 289 289 288 287 286 285 284 285 286 286 286 288 290 290 290 290 289 288 288 288 288 287 287
300 300 300 299 297 295 294 292 291 291 291 290 290 290 289 289 288 287 285 284 283 283 282 282 283 283 284 284 283 284 284 285 285 286 288 288 289 288 288 288 288 287 287
299 298 297 296 294 293 292 292 291 290 290 289 289 287 287 286 285 284 284 283 282 281 281 281 280 280 280 281 281 281 281 282 283 282 285 287 287 288 288 287 288 287 287

GFSMW_850_thetae_036.txt.gz
Theta_e
325 325 324 324 323 323 324 325 325 325 324 325 322 322 324 324 324 324 324 323 321 321 321 320 319 318 314 310 310 310 308 312 307 306 306 304 302 301 300 300 299 299 298
326 327 327 325 324 324 325 326 327 328 326 326 323 325 326 325 325 324 324 322 320 320 319 319 319 317 311 310 309 309 310 306 306 306 305 305 304 302 301 299 298 298 297
329 329 329 329 326 325 325 326 328 329 329 327 325 325 325 325 326 325 325 322 320 320 319 319 317 313 310 310 309 309 312 307 306 307 303 303 305 303 301 300 299 298 298
328 329 330 329 329 327 327 327 327 329 329 328 326 324 323 325 323 324 323 322 321 319 318 317 314 311 311 310 309 309 311 311 307 305 300 300 300 300 301 301 300 299 298
328 328 329 330 330 328 327 328 328 329 330 329 327 323 323 326 325 323 323 322 320 318 316 315 313 311 310 310 307 309 311 308 307 302 303 301 300 300 299 299 298 298 297
328 328 329 330 331 330 329 326 327 329 330 329 326 325 325 325 325 322 323 322 321 319 315 313 312 311 310 309 306 309 310 303 300 300 300 299 300 300 298 298 298 297 297
328 328 329 330 331 332 332 330 330 327 325 325 322 321 322 325 324 324 323 323 323 320 317 314 312 311 309 306 306 309 306 308 299 297 300 300 299 297 297 297 297 297 297
327 328 328 328 330 331 333 331 329 327 325 324 324 322 323 323 324 322 324 325 323 321 319 316 312 310 307 307 307 306 306 301 296 298 299 298 298 297 297 296 296 296 296
322 325 327 328 329 330 332 332 330 329 328 324 322 320 321 324 323 324 326 325 321 320 316 316 313 311 306 305 306 304 298 295 300 301 299 298 297 297 296 295 295 295 295
322 322 323 325 327 328 330 331 331 331 330 325 324 324 325 325 325 325 326 325 323 319 318 317 314 310 307 306 302 300 298 301 300 298 298 297 296 296 295 295 295 295 294
325 324 324 325 326 327 329 329 330 331 331 327 325 326 326 327 325 325 324 322 323 322 320 318 314 309 305 304 301 298 300 297 299 298 297 296 296 295 295 295 294 294 293
323 326 327 327 328 328 328 329 329 330 330 330 328 326 326 324 322 322 321 322 322 321 320 316 312 306 303 298 296 298 298 299 299 297 297 296 296 295 295 295 294 294 293
322 326 327 328 329 329 329 329 329 329 329 327 326 325 323 322 323 322 322 321 321 319 316 307 307 303 300 298 297 297 300 299 298 296 296 296 296 295 295 295 294 293 293
319 324 327 327 328 327 326 326 326 326 327 326 326 325 324 323 323 322 322 320 319 317 312 305 303 300 297 296 296 296 298 299 296 295 295 295 295 295 295 294 294 293 292
319 322 326 326 326 326 325 325 327 327 327 326 324 324 323 322 321 319 319 318 316 315 310 305 300 299 296 297 296 298 299 298 298 296 295 295 295 295 294 294 294 293 292
321 322 323 323 323 323 322 324 323 322 320 319 318 318 318 318 317 315 313 311 309 306 303 300 298 297 296 296 298 299 298 297 295 295 295 295 295 294 294 293 293 293 292
318 317 317 317 317 317 317 316 315 315 315 315 316 315 314 312 311 309 307 306 304 301 299 298 301 299 296 297 299 298 297 296 295 294 295 294 294 294 293 293 293 293 292
313 313 313 313 313 313 313 314 314 314 313 313 312 310 310 309 307 306 305 303 301 300 300 299 300 297 297 299 298 297 295 293 293 293 293 293 293 293 293 292 292 291 291
310 311 311 312 312 312 312 312 311 310 309 308 307 306 306 305 304 303 302 301 300 298 298 298 298 298 297 298 296 292 291 290 291 292 292 292 292 292 292 292 292 292 291
308 310 311 311 311 310 309 309 307 307 306 305 303 302 301 300 300 299 298 298 298 299 298 298 297 296 293 292 291 290 290 290 291 291 291 291 290 289 291 292 292 291 291
308 308 309 310 309 308 307 307 306 305 302 301 300 300 299 299 299 299 299 298 296 295 292 290 290 290 290 290 289 289 289 290 290 291 291 291 291 290 289 291 291 291 291
307 307 308 306 305 304 305 305 304 302 302 301 301 301 300 298 294 292 291 291 291 290 291 291 291 292 292 291 290 290 289 289 289 289 290 290 290 290 290 290 289 290 290
304 303 304 304 302 302 302 303 302 301 300 298 295 293 291 291 290 290 290 292 291 291 290 289 289 289 288 288 287 285 284 284 285 286 286 287 288 289 290 290 290 289 289
303 302 302 301 301 299 300 300 298 295 293 292 291 290 290 290 290 289 288 287 286 285 286 286 287 286 286 286 284 282 282 282 281 281 281 282 283 285 287 288 288 289 289
301 300 299 299 299 298 298 295 293 292 291 291 290 290 289 288 286 286 285 284 283 283 282 282 282 283 282 281 279 279 279 280 280 281 282 283 284 285 285 287 288 288 288
298 298 298 298 297 296 294 292 292 291 290 289 288 287 286 286 285 284 284 283 282 281 281 280 279 279 278 278 278 278 278 279 280 281 283 285 285 285 286 287 288 287 287

GFSMW_850_thetae_042.txt.gz
Theta_e
324 326 323 321 320 319 316 314 316 318 319 320 320 319 320 321 315 320 324 324 322 326 324 324 324 323 321 319 318 314 312 310 310 312 313 312 311 310 307 305 304 303 302
326 324 325 323 323 320 318 315 315 317 317 317 317 316 315 313 314 314 319 320 323 325 325 324 324 322 321 318 317 315 312 310 312 311 313 312 310 308 308 305 304 304 302
327 325 324 324 324 322 319 321 322 323 322 320 321 323 321 320 322 322 320 322 324 324 325 324 324 322 319 318 317 315 311 310 312 312 312 310 309 307 307 306 305 303 303
325 326 325 324 323 324 323 321 322 323 324 323 326 324 322 322 324 326 326 326 325 325 324 323 322 321 319 317 317 315 311 311 313 312 312 310 308 306 306 306 305 304 303
325 326 326 326 325 324 324 324 324 325 325 326 325 327 323 325 325 324 324 326 326 324 323 322 321 320 319 318 315 314 311 311 311 311 310 308 307 306 305 304 305 305 304
327 326 326 326 327 326 325 326 326 327 328 327 326 327 326 324 326 326 325 325 325 324 323 322 321 319 319 317 314 313 310 309 310 310 311 309 306 305 305 304 304 304 302
326 327 327 327 328 327 327 326 327 327 328 329 329 327 326 327 326 324 324 325 324 324 323 322 320 319 318 317 314 311 310 309 308 309 308 307 304 304 304 303 301 300 300
327 326 326 327 328 328 329 328 327 327 328 328 329 328 321 323 326 324 322 321 322 322 324 322 321 320 318 317 310 310 311 310 307 309 307 305 303 303 303 301 300 300 299
327 327 326 326 328 328 329 329 330 328 328 328 329 329 322 322 324 322 321 321 320 322 323 323 321 319 318 315 311 311 310 309 306 306 304 302 302 303 301 300 300 299 298
323 326 327 326 326 329 330 330 331 330 330 330 330 330 324 323 323 322 322 322 323 323 324 322 321 319 317 316 312 311 310 306 305 303 303 304 303 302 301 300 299 298 297
325 325 325 325 327 327 330 332 332 332 332 332 331 330 329 325 324 323 322 323 323 322 323 323 322 320 318 315 311 309 308 304 302 303 303 303 301 301 301 300 299 297 297
322 325 326 326 325 326 329 331 334 334 333 333 333 331 329 325 324 323 322 324 324 324 323 321 320 318 316 313 309 307 304 302 302 302 302 302 301 301 300 298 298 297 297
321 324 327 328 328 327 328 331 334 335 333 332 331 330 329 326 323 323 326 325 324 321 320 318 317 317 312 309 308 306 303 300 301 301 302 300 300 299 298 298 298 297 297
321 322 326 328 330 330 330 330 332 333 333 332 331 332 326 325 326 325 323 323 322 320 319 318 315 312 311 308 305 304 302 300 300 301 300 299 299 298 298 297 297 297 297
320 321 324 329 331 332 332 331 332 332 332 330 330 329 328 327 325 323 322 320 319 318 317 315 314 311 307 305 305 302 300 300 301 299 298 298 297 297 297 297 297 297 297
320 320 322 329 331 332 332 332 331 331 330 327 328 327 326 322 320 319 319 318 317 316 314 313 311 309 306 305 303 300 299 300 299 299 298 297 298 297 297 296 296 296 296
322 323 324 329 330 330 330 328 326 325 325 323 322 321 319 316 315 314 314 313 312 311 309 308 307 305 303 301 299 300 298 298 298 298 296 296 294 295 295 295 295 294 294
323 324 327 328 328 327 325 323 321 320 319 318 316 314 313 312 312 311 310 308 306 305 303 302 300 299 298 298 298 298 297 297 297 296 294 294 293 293 293 293 293 293 293
322 323 324 324 323 321 319 317 316 314 313 312 311 310 309 308 307 307 306 305 304 302 300 299 299 299 299 298 298 297 296 295 293 291 291 292 292 292 292 292 292 292 292
321 320 319 318 317 316 315 313 312 311 309 308 308 307 306 306 305 303 302 301 300 300 300 299 298 298 295 295 295 294 293 292 291 290 289 288 287 287 287 288 289 289 289
318 317 315 314 313 312 311 310 309 308 307 307 306 305 305 304 303 302 300 300 299 298 297 295 296 295 295 294 293 293 292 290 288 286 285 284 283 283 282 281 281 282 282
315 314 313 312 311 310 310 308 307 306 306 305 305 304 303 301 300 299 298 297 296 296 294 294 294 294 294 293 292 291 289 287 286 283 283 282 282 281 281 282 285 285 286
313 312 312 311 310 309 308 307 306 305 305 305 304 301 298 298 297 296 295 295 295 295 295 293 291 291 290 289 288 288 286 283 282 282 281 281 280 280 283 283 283 284 286
312 311 311 310 309 308 307 306 305 305 303 300 298 296 295 295 295 294 293 293 292 291 290 288 288 288 288 286 285 283 282 282 281 281 280 280 280 282 282 281 281 281 282
311 311 309 308 307 307 305 304 302 300 298 297 296 295 294 292 291 290 290 290 289 287 285 285 284 284 283 283 282 281 281 280 280 279 279 280 280 280 279 279 279 279 280
310 309 308 307 305 303 302 300 299 297 296 294 293 291 290 290 289 289 288 287 285 284 284 283 282 282 281 280 280 279 279 279 279 279 279 279 279 278 278 277 277 277 278

GFSMW_850_thetae_045.txt.gz
Theta_e
324 320 319 318 316 316 316 317 316 315 314 315 314 314 314 312 313 314 313 318 321 319 318 320 324 323 323 323 321 319 316 314 311 310 310 312 313 312 311 310 306 305 305
325 320 319 318 317 316 316 315 316 316 316 316 317 318 319 318 316 317 316 316 317 320 319 321 322 323 324 322 320 319 317 315 311 310 311 313 312 311 311 309 307 305 304
326 323 322 320 319 315 316 316 316 316 317 320 321 321 321 321 321 318 315 316 319 320 321 321 324 323 323 322 320 319 317 315 311 311 311 312 309 308 307 308 306 305 304
325 325 324 323 319 317 315 316 317 318 318 318 319 319 317 317 315 314 315 315 315 320 322 323 324 323 322 321 320 318 317 316 310 311 312 312 311 310 307 306 306 305 305
325 324 324 323 323 319 316 316 316 316 316 316 318 318 319 318 317 320 321 323 324 325 324 323 323 323 323 322 319 318 317 316 310 312 312 311 310 308 308 306 305 304 305
326 325 325 324 323 322 321 318 318 321 322 323 321 324 326 323 321 322 323 325 325 325 325 324 322 322 322 321 319 318 317 314 312 311 312 311 309 308 307 306 305 305 304
326 325 324 324 324 323 322 322 322 321 322 323 323 324 325 325 322 324 324 325 324 323 324 323 323 323 322 321 319 317 315 315 311 310 311 310 309 307 305 304 304 304 305
325 326 326 325 326 325 325 325 323 324 324 325 326 326 325 325 325 324 325 325 324 322 321 323 323 323 322 321 318 317 316 315 311 311 309 309 308 307 304 304 304 302 301
326 325 326 326 326 326 326 326 326 324 324 326 327 327 327 326 327 327 326 325 325 321 321 321 323 323 322 321 319 317 316 314 309 310 308 307 307 303 303 302 302 300 300
327 326 326 326 326 326 327 326 327 327 327 325 326 328 329 328 327 327 326 326 325 324 322 321 323 322 322 321 318 316 313 309 309 309 306 305 302 302 303 304 303 300 299
325 326 326 326 326 327 328 326 327 327 327 327 326 327 327 328 328 325 322 325 325 322 322 324 324 322 322 320 318 316 311 308 308 307 304 301 303 303 304 302 301 300 299
322 324 326 327 326 324 325 324 328 324 324 328 327 327 328 328 328 327 324 324 323 324 326 324 322 320 320 319 318 315 311 308 307 306 301 302 303 303 301 300 300 300 298
321 325 326 326 326 326 328 326 329 327 326 329 329 329 329 329 328 326 326 324 323 323 323 322 321 320 317 317 316 311 308 307 307 301 302 302 302 300 300 299 298 298 298
320 323 324 324 322 326 328 332 331 330 330 330 330 331 330 329 329 327 325 323 323 322 322 320 320 319 318 316 311 308 307 306 303 303 301 301 301 298 298 297 298 297 297
320 322 325 326 326 327 329 332 334 334 333 333 332 331 330 330 327 326 325 325 323 322 320 320 319 318 315 312 310 308 306 304 302 300 300 300 299 298 297 296 297 297 296
319 319 322 328 329 330 331 331 331 332 332 331 330 330 330 328 326 327 326 324 322 320 319 317 316 314 312 310 307 305 303 300 298 298 299 298 298 296 294 294 295 295 294
320 319 320 327 330 331 331 331 331 331 331 331 331 329 328 327 326 324 322 320 318 317 316 314 312 310 307 305 304 301 299 298 299 297 297 296 296 294 293 292 293 293 293
320 321 321 328 330 331 330 331 330 329 328 328 327 326 325 324 323 319 317 315 314 313 311 309 307 305 303 302 299 298 298 297 296 296 295 295 294 292 292 292 292 291 291
321 322 324 328 330 330 330 329 327 325 323 322 322 321 319 318 315 314 313 312 310 307 305 303 302 300 298 298 298 297 296 296 295 295 293 292 291 290 289 287 285 284 284
322 323 326 328 328 327 327 326 323 321 319 317 316 314 313 312 310 309 308 306 303 302 300 299 298 299 298 297 297 296 295 294 292 292 290 288 286 284 283 282 282 282 282
321 323 324 325 324 323 322 319 317 315 313 312 311 309 308 307 307 306 304 303 301 300 299 298 297 296 295 294 294 294 293 292 290 287 286 284 283 283 282 281 281 282 283
321 321 321 320 319 318 316 315 313 311 310 308 307 307 306 305 304 303 301 300 300 299 295 295 295 295 294 293 293 293 292 290 287 285 283 283 282 281 281 281 282 281 280
318 318 317 316 314 314 313 311 309 308 308 307 306 305 304 303 301 299 298 297 297 296 294 294 294 294 294 293 292 290 288 286 283 282 282 282 281 280 281 281 280 279 279
316 315 314 313 311 311 310 309 308 307 306 306 305 303 301 299 297 296 295 296 295 295 295 294 292 291 290 290 289 287 285 282 282 282 281 280 280 280 279 279 279 278 278
314 313 312 311 310 309 308 307 306 306 305 304 300 297 297 296 296 295 295 295 294 293 292 291 289 289 288 287 284 282 282 281 281 280 280 280 280 279 279 278 278 277 277
312 312 310 310 308 308 306 306 305 303 301 298 296 295 295 294 294 293 292 291 290 288 286 285 284 284 283 282 281 280 280 279 279 279 279 279 278 278 277 277 276 276 276

GFSMW_850_thetae_048.txt.gz
Theta_e
323 320 320 319 318 317 317 319 320 318 315 316 316 314 315 314 318 316 314 315 315 314 315 316 317 323 322 323 322 322 321 318 314 312 311 310 309 312 313 311 310 308 306
323 319 319 319 318 317 317 317 318 317 316 316 315 315 315 315 317 316 315 315 314 314 315 314 315 319 322 323 322 322 322 318 315 312 310 310 311 312 312 311 310 309 307
325 320 319 318 317 317 317 317 317 316 316 316 314 314 316 316 316 316 314 314 314 315 316 319 318 319 321 323 323 323 322 320 317 314 311 311 311 311 311 310 308 308 307
325 323 319 317 316 316 316 316 316 316 315 316 315 315 315 314 314 313 313 314 314 318 319 320 319 320 322 322 322 323 321 319 318 315 313 310 311 310 309 310 308 307 307
324 325 321 319 317 315 316 317 316 316 316 315 316 317 317 318 318 316 314 313 315 317 315 314 318 321 322 322 322 322 320 319 318 317 315 311 311 312 310 309 309 307 306
323 323 323 321 318 315 316 317 317 316 317 318 320 320 320 320 320 318 317 316 314 314 319 317 321 322 323 323 322 322 320 319 318 316 314 311 312 312 311 310 309 307 306
322 324 324 323 322 318 315 316 316 317 317 318 318 318 318 318 317 316 316 317 319 321 324 324 323 323 322 322 322 322 321 319 316 316 316 313 311 311 309 307 307 305 304
321 323 324 324 323 322 318 315 315 315 316 315 314 315 316 317 317 320 321 319 321 322 324 323 322 323 323 323 322 321 320 319 318 317 315 312 310 311 307 306 305 304 303
323 323 324 324 324 324 322 319 317 317 317 318 318 319 319 320 322 325 325 322 322 323 323 324 323 321 322 323 322 321 320 318 317 315 314 310 310 309 307 305 302 302 302
324 325 325 325 324 324 324 323 321 321 319 319 319 320 322 322 323 324 325 325 323 325 324 324 322 321 322 322 322 321 319 318 316 315 312 309 309 308 306 304 303 302 303
325 324 325 325 325 325 324 325 324 323 323 322 321 322 322 323 325 325 325 325 325 325 325 325 324 323 322 322 321 320 319 318 316 314 310 309 309 307 304 303 303 303 302
325 325 325 325 325 325 325 325 325 325 325 326 325 325 325 325 326 326 326 326 326 324 323 324 324 322 322 321 320 319 319 316 316 313 310 308 307 304 302 302 303 301 300
323 324 325 325 325 325 325 326 326 326 326 326 326 326 326 323 325 327 326 319 321 324 324 323 321 324 321 320 320 319 317 315 312 310 308 307 304 302 302 303 300 299 298
322 324 325 325 325 326 326 325 325 326 327 327 326 326 324 326 327 326 326 322 319 322 324 323 323 322 320 319 318 317 316 313 309 307 306 304 302 302 302 300 299 297 297
320 324 325 325 326 326 325 326 327 326 327 326 326 327 325 327 328 327 327 326 327 325 323 322 322 321 320 319 318 315 311 308 307 306 304 303 301 301 298 297 295 295 295
321 320 325 325 327 327 326 325 325 328 328 326 327 327 327 328 328 327 326 325 326 324 323 321 320 319 319 317 314 310 308 306 304 303 301 300 300 298 297 296 295 293 293
320 320 320 323 325 325 325 326 326 328 332 331 330 329 329 328 327 326 325 325 323 322 321 320 319 317 315 312 309 307 305 304 301 299 298 299 298 296 295 295 293 291 292
321 319 319 319 324 327 328 329 329 331 330 330 330 329 329 328 327 324 323 322 321 319 318 316 314 313 311 309 306 304 302 299 298 298 297 296 294 294 294 292 290 289 287
320 320 319 320 325 328 330 330 330 331 330 330 329 327 327 324 324 322 322 319 316 314 312 311 310 308 307 304 302 300 298 298 297 296 295 294 294 292 291 288 285 284 284
319 320 320 321 327 330 331 331 330 329 328 328 327 326 325 323 323 321 319 314 311 311 310 308 305 304 303 300 298 298 297 296 295 295 293 292 291 287 284 284 284 284 283
320 319 320 322 326 329 330 329 328 326 325 324 323 322 320 319 317 314 312 311 310 307 304 302 299 299 298 298 297 297 296 295 293 292 291 288 285 284 284 283 283 282 282
320 321 321 325 328 328 328 327 325 323 321 320 319 317 314 311 310 309 308 306 304 301 300 299 298 298 297 296 295 295 294 293 292 290 286 283 283 283 282 281 281 281 280
320 321 323 325 325 324 324 323 320 318 316 314 312 310 308 307 306 305 304 302 301 299 299 298 297 296 295 294 294 293 292 291 288 285 283 282 282 281 281 280 280 279 279
320 320 321 320 319 318 317 317 316 313 312 310 308 306 305 304 302 301 300 300 299 299 296 295 295 294 294 293 292 291 289 287 284 282 281 281 280 280 280 279 278 278 278
319 319 318 317 315 314 313 312 311 310 308 307 305 304 303 301 300 299 299 298 298 296 295 294 294 293 292 290 289 288 285 282 281 281 281 280 280 279 279 278 278 277 277
316 315 314 313 312 310 309 308 308 307 306 305 303 302 301 299 298 296 296 295 294 293 292 291 290 289 288 287 285 282 281 280 280 280 279 279 278 278 277 277 277 276 276